Regional Weather Roundup
Issued by NWS

Home | Current Version | Previous Version | Graphics & Text | Print | Product List | Glossary On
Versions: 1 2 3 4 5 6 7 8 9 10 11 12 13 14 15 16 17 18 19 20 21 22 23 24 25 26 27 28 29 30 31 32 33 34 35 36 37 38 39 40 41 42 43 44 45 46 47 48 49 50
000
ASUS43 KDMX 202106
RWRIA

WEATHER ROUNDUP FOR IOWA
NATIONAL WEATHER SERVICE DES MOINES IA
300 PM CST MON NOV 20 2017

NOTE: "FAIR" INDICATES FEW OR NO CLOUDS BELOW 12,000 FEET WITH NO
SIGNIFICANT WEATHER AND/OR OBSTRUCTIONS TO VISIBILITY.

* - THESE STATIONS ARE NOT NWS STATIONS...THUS NOT UNDER NWS
QUALITY CONTROL.  THEY ALSO DO NOT REPORT WEATHER SUCH
AS PRECIPITATION OR FOG.

IAZ001>003-012>014-020>022-031>034-043>046-202200-
   NORTHWEST IOWA

CITY           SKY/WX    TMP DP  RH WIND       PRES   REMARKS
CARROLL *      CLOUDY    55  27  33 SW22G31   29.55R
CHEROKEE *     CLOUDY    50  29  44 SW12      29.54S
DENISON *      CLOUDY    54  27  35 S13G21    29.57S
LE MARS *      CLOUDY    50  30  46 S5        29.53S
ORANGE CITY *  CLOUDY    50  30  46 SW9       29.53S
SHELDON *      CLOUDY    50  27  40 SW13      29.52S
SIOUX CITY     CLOUDY    54  28  36 SW8       29.55S
SPENCER        CLOUDY    49  28  44 SW17      29.53S
STORM LAKE *   CLOUDY    50  27  40 SW17      29.53F
$$

IAZ055>058-069>071-079>083-090>094-202200-
   SOUTHWEST IOWA

CITY           SKY/WX    TMP DP  RH WIND       PRES   REMARKS
ATLANTIC *     CLOUDY    57  28  33 S22G30    29.60F
AUDUBON *      CLOUDY    57  25  28 SW16G25   29.59F
CLARINDA *     CLOUDY    61  27  27 SW22G30     N/A
COUNCIL BLFS * CLOUDY    55  28  35 SW15G25   29.59S
CRESTON *      CLOUDY    57  28  33 SW24G32   29.65S
HARLAN  *      CLOUDY    55  28  35 SW15G23   29.62F
LAMONI         SUNNY     59  28  30 SW25G35   29.66F
RED OAK *      CLOUDY    59  28  31 SW22G29   29.62F
SHENANDOAH *   CLOUDY    59  27  29 SW17G29   29.64F
$$

IAZ047>049-059>061-072>074-084-202200-
   CENTRAL IOWA

CITY           SKY/WX    TMP DP  RH WIND       PRES   REMARKS
AMES           CLOUDY    58  30  34 SW24G30   29.58S
ANKENY *       CLOUDY    61  27  27 SW13G29   29.61R
BOONE *        CLOUDY    57  28  33 SW20G30   29.57R
CHARITON *     CLOUDY    59  27  29 SW23G33   29.64F
DES MOINES     CLOUDY    61  24  24 SW22G35   29.60F
GRINNELL*      CLOUDY    59  27  29 SW22G31   29.61F
KNOXVILLE *    CLOUDY    61  23  23 SW21G37   29.60F
MARSHALLTOWN   CLOUDY    59  30  33 S21G31    29.57F
NEWTON *       CLOUDY    61  27  27 SW24      29.61S
PELLA *        CLOUDY    60  23  24 SW20G26   29.63F
PERRY *          N/A     56  24  29 SW23G29   29.58F
$$

IAZ004>006-015-016-023>025-035-036-202200-
   NORTH CENTRAL IOWA

CITY           SKY/WX    TMP DP  RH WIND       PRES   REMARKS
ALGONA *       CLOUDY    52  32  46 SW10      29.52S
CLARION *      CLOUDY    54  34  47 SW15G24   29.54S
ESTHERVILLE    CLOUDY    46  29  51 SW18      29.51R
FORT DODGE *   CLOUDY    54  28  36 SW15      29.56R
MASON CITY     CLOUDY    53  29  39 SW18      29.54S
FOREST CITY *    N/A     52  32  46 SW9       29.52F
WEBSTER CITY * CLOUDY    57  28  33 SW21G31   29.52S
IOWA FALLS *     N/A     58  30  33 SW24G35   29.57S
$$

IAZ007>011-017>019-026>030-037>042-050>054-066-202200-
   NORTHEAST IOWA

CITY           SKY/WX    TMP DP  RH WIND       PRES   REMARKS
CEDAR RAPIDS   SUNNY     60  27  28 SW21G39   29.62F
CHARLES CITY * MOSUNNY   54  30  40 SW14G21   29.54F
CLINTON *      SUNNY     57  34  41 S18G28    29.69F
DECORAH *      CLOUDY    52  32  46 SW12G20   29.54F
DUBUQUE        SUNNY     55  30  38 S23G30    29.61F
MONTICELLO *   SUNNY     59  32  36 S18G26    29.62F
OELWEIN *      CLOUDY    55  34  44 SW15G22   29.57F
WATERLOO       CLOUDY    57  29  34 SW17G23   29.56F
$$

IAZ064-065-067-068-078-202200-
   EAST CENTRAL IOWA

CITY           SKY/WX    TMP DP  RH WIND       PRES   REMARKS
DAVENPORT      SUNNY     57  31  37 S16G28    29.71F
IOWA CITY      SUNNY     62  28  27 SW18G30   29.67F
MT. PLEASANT * SUNNY     58  31  35 S24G30    29.71F
MUSCATINE *    SUNNY     61  32  33 S26G35    29.68F
QUAD CITIES    SUNNY     59  31  34 SW17G31   29.69F
$$

IAZ062-063-075>077-085>089-095>099-202200-
   SOUTHEAST IOWA

CITY           SKY/WX    TMP DP  RH WIND       PRES   REMARKS
BURLINGTON     SUNNY     58  34  40 SW23G30   29.73F
FAIRFIELD *    SUNNY     59  28  31 SW24G31   29.68F
FORT MADISON * SUNNY     59  30  33 S17G28    29.75F
KEOKUK *       SUNNY     61  30  31 SW24G33   29.74F
OSKALOOSA *      N/A     59  29  33 SW24G31   29.65F
OTTUMWA        SUNNY     60  29  30 S22G31    29.67F
WASHINGTON *   SUNNY     61  28  29 SW29      29.68F
$$

ABBREVIATIONS USED IN REMARKS
   TC - TEMPERATURES IN CELSIUS
  WCI - WIND CHILL INDEX
   HX - HEAT INDEX
  VSB - VISIBILITY
$$





USA.gov is the U.S. government's official web portal to all federal, state and local government web resources and services.